Time,TemperatureF,DewpointF,PressureIn,WindDirection,WindDirectionDegrees,WindSpeedMPH,WindSpeedGustMPH,Humidity,HourlyPrecipIn,Conditions,Clouds,dailyrainin,SoftwareType,DateUTC
2013-05-23 00:01:00,61.7,56.1,29.84,South,180,0.0,0.0,82,0.00,,,0.00,WUHU216HW,2013-05-23 04:01:00,
2013-05-23 00:06:00,61.5,55.9,29.85,SSW,203,0.0,1.1,82,0.00,,,0.00,WUHU216HW,2013-05-23 04:06:00,
2013-05-23 00:12:00,61.3,55.8,29.85,SSW,203,1.5,1.5,82,0.00,,,0.00,WUHU216HW,2013-05-23 04:12:00,
2013-05-23 00:17:00,61.3,55.8,29.85,SSW,203,0.0,1.5,82,0.00,,,0.00,WUHU216HW,2013-05-23 04:17:00,
2013-05-23 00:22:00,61.1,55.9,29.85,SSW,203,0.0,1.5,83,0.00,,,0.00,WUHU216HW,2013-05-23 04:22:00,
2013-05-23 00:27:00,60.9,55.8,29.85,SSW,203,0.0,0.0,83,0.00,,,0.00,WUHU216HW,2013-05-23 04:27:00,
2013-05-23 00:32:00,60.9,55.8,29.85,SSW,203,1.5,1.5,83,0.00,,,0.00,WUHU216HW,2013-05-23 04:32:00,
2013-05-23 00:37:00,60.6,55.4,29.85,WSW,248,0.0,1.5,83,0.00,,,0.00,WUHU216HW,2013-05-23 04:37:00,
2013-05-23 00:42:00,60.6,55.4,29.85,SW,225,0.0,2.6,83,0.00,,,0.00,WUHU216HW,2013-05-23 04:42:00,
2013-05-23 00:47:00,60.6,55.2,29.85,SW,225,0.0,2.6,83,0.00,,,0.00,WUHU216HW,2013-05-23 04:47:00,
2013-05-23 00:52:00,60.4,55.2,29.86,West,270,1.5,2.4,83,0.00,,,0.00,WUHU216HW,2013-05-23 04:52:00,
2013-05-23 00:57:00,59.7,54.2,29.85,NW,315,0.0,1.5,82,0.00,,,0.00,WUHU216HW,2013-05-23 04:57:00,
2013-05-23 01:02:00,58.1,52.3,29.85,NNW,338,0.0,1.5,81,0.00,,,0.00,WUHU216HW,2013-05-23 05:02:00,
2013-05-23 01:08:00,57.0,51.2,29.85,WNW,293,0.0,0.0,81,0.00,,,0.00,WUHU216HW,2013-05-23 05:08:00,
2013-05-23 01:13:00,56.4,51.0,29.86,West,270,1.5,1.5,82,0.00,,,0.00,WUHU216HW,2013-05-23 05:13:00,
2013-05-23 01:18:00,55.4,49.9,29.86,NNW,338,0.0,1.5,82,0.00,,,0.00,WUHU216HW,2013-05-23 05:18:00,
2013-05-23 01:23:00,55.0,49.9,29.86,WNW,293,7.1,7.1,83,0.00,,,0.00,WUHU216HW,2013-05-23 05:23:00,
2013-05-23 01:28:00,54.3,49.2,29.86,WNW,293,0.0,7.1,83,0.00,,,0.00,WUHU216HW,2013-05-23 05:28:00,
2013-05-23 01:33:00,53.7,49.0,29.87,WNW,293,0.0,4.4,84,0.00,,,0.00,WUHU216HW,2013-05-23 05:33:00,
2013-05-23 01:38:00,53.4,48.7,29.87,NNW,338,0.0,4.4,84,0.00,,,0.00,WUHU216HW,2013-05-23 05:38:00,
2013-05-23 01:43:00,52.8,48.1,29.86,WNW,293,0.0,0.0,84,0.00,,,0.00,WUHU216HW,2013-05-23 05:43:00,
2013-05-23 01:48:00,52.7,48.2,29.86,West,270,0.0,0.0,85,0.00,,,0.00,WUHU216HW,2013-05-23 05:48:00,
2013-05-23 01:53:00,52.5,48.1,29.86,NW,315,5.5,5.5,85,0.00,,,0.00,WUHU216HW,2013-05-23 05:53:00,
2013-05-23 01:59:00,52.1,47.7,29.86,NW,315,6.0,6.0,85,0.00,,,0.00,WUHU216HW,2013-05-23 05:59:00,
2013-05-23 02:04:00,51.9,47.5,29.87,WNW,293,0.0,6.0,85,0.00,,,0.00,WUHU216HW,2013-05-23 06:04:00,
2013-05-23 02:09:00,51.9,47.5,29.87,WNW,293,0.0,6.0,85,0.00,,,0.00,WUHU216HW,2013-05-23 06:09:00,
2013-05-23 10:25:00,48.0,44.9,29.98,North,0,3.1,3.1,89,0.02,,,0.00,WUHU216HW,2013-05-23 14:25:00,
2013-05-23 10:35:00,48.0,44.9,29.99,NNE,23,0.0,3.1,89,0.02,,,0.03,WUHU216HW,2013-05-23 14:35:00,
2013-05-23 10:40:00,48.2,45.1,29.99,North,0,0.6,0.6,89,0.02,,,0.05,WUHU216HW,2013-05-23 14:40:00,
2013-05-23 10:45:00,48.2,45.1,29.99,North,0,0.8,0.8,89,0.02,,,0.05,WUHU216HW,2013-05-23 14:45:00,
2013-05-23 10:50:00,48.2,45.1,30.00,North,0,2.9,3.8,89,0.02,,,0.05,WUHU216HW,2013-05-23 14:50:00,
2013-05-23 10:55:00,48.2,45.1,30.00,NNW,338,4.9,4.9,89,0.02,,,0.05,WUHU216HW,2013-05-23 14:55:00,
2013-05-23 11:00:00,48.0,44.9,30.00,North,0,4.4,4.9,89,0.02,,,0.05,WUHU216HW,2013-05-23 15:00:00,
2013-05-23 11:05:00,48.2,45.1,30.00,North,0,0.0,7.3,89,0.02,,,0.05,WUHU216HW,2013-05-23 15:05:00,
2013-05-23 11:10:00,48.0,44.6,30.00,North,0,0.8,7.3,88,0.04,,,0.07,WUHU216HW,2013-05-23 15:10:00,
2013-05-23 11:16:00,48.0,44.6,30.00,North,0,8.5,8.5,88,0.04,,,0.07,WUHU216HW,2013-05-23 15:16:00,
2013-05-23 11:21:00,47.8,44.4,30.00,North,0,2.4,8.5,88,0.04,,,0.07,WUHU216HW,2013-05-23 15:21:00,
2013-05-23 11:26:00,47.8,44.4,30.01,North,0,0.0,4.2,88,0.04,,,0.07,WUHU216HW,2013-05-23 15:26:00,
2013-05-23 11:31:00,47.8,44.4,30.01,NE,45,0.0,8.7,88,0.04,,,0.07,WUHU216HW,2013-05-23 15:31:00,
2013-05-23 11:36:00,47.8,44.4,30.01,NE,45,3.1,8.7,88,0.04,,,0.07,WUHU216HW,2013-05-23 15:36:00,
2013-05-23 11:41:00,47.8,44.4,30.01,NNE,23,2.9,3.1,88,0.02,,,0.07,WUHU216HW,2013-05-23 15:41:00,
2013-05-23 11:46:00,47.4,44.1,30.02,NNW,338,4.4,4.4,88,0.02,,,0.07,WUHU216HW,2013-05-23 15:46:00,
2013-05-23 11:51:00,47.4,44.1,30.02,WSW,248,7.6,7.6,88,0.02,,,0.07,WUHU216HW,2013-05-23 15:51:00,
2013-05-23 11:56:00,47.4,44.1,30.02,North,0,2.2,9.6,88,0.02,,,0.07,WUHU216HW,2013-05-23 15:56:00,
2013-05-23 12:01:00,47.3,43.9,30.03,North,0,6.2,9.6,88,0.02,,,0.07,WUHU216HW,2013-05-23 16:01:00,
2013-05-23 12:06:00,47.3,43.9,30.03,NE,45,2.9,6.2,88,0.00,,,0.07,WUHU216HW,2013-05-23 16:06:00,
2013-05-23 12:12:00,47.3,43.9,30.03,North,0,4.9,6.7,88,0.00,,,0.07,WUHU216HW,2013-05-23 16:12:00,
2013-05-23 12:17:00,47.3,43.9,30.03,NNW,338,4.4,10.5,88,0.02,,,0.09,WUHU216HW,2013-05-23 16:17:00,
2013-05-23 12:22:00,47.1,43.7,30.04,North,0,8.9,10.5,88,0.02,,,0.09,WUHU216HW,2013-05-23 16:22:00,
2013-05-23 12:27:00,47.1,43.7,30.04,North,0,11.6,11.6,88,0.02,,,0.09,WUHU216HW,2013-05-23 16:27:00,
2013-05-23 12:32:00,47.1,43.7,30.04,NNW,338,7.8,11.6,88,0.08,,,0.15,WUHU216HW,2013-05-23 16:32:00,
2013-05-23 12:37:00,47.1,43.7,30.04,NNW,338,8.0,11.6,88,0.08,,,0.15,WUHU216HW,2013-05-23 16:37:00,
2013-05-23 12:42:00,47.1,43.7,30.05,NNW,338,5.8,8.0,88,0.08,,,0.15,WUHU216HW,2013-05-23 16:42:00,
2013-05-23 12:47:00,47.3,43.9,30.05,North,0,1.3,8.0,88,0.08,,,0.15,WUHU216HW,2013-05-23 16:47:00,
2013-05-23 12:52:00,47.3,43.9,30.05,NNW,338,2.0,5.8,88,0.08,,,0.15,WUHU216HW,2013-05-23 16:52:00,
2013-05-23 12:57:00,47.1,43.7,30.05,NW,315,8.5,8.5,88,0.08,,,0.15,WUHU216HW,2013-05-23 16:57:00,
2013-05-23 13:03:00,47.1,43.7,30.06,NW,315,0.0,8.5,88,0.08,,,0.15,WUHU216HW,2013-05-23 17:03:00,
2013-05-23 13:08:00,47.1,43.7,30.06,North,0,6.2,6.2,88,0.08,,,0.15,WUHU216HW,2013-05-23 17:08:00,
2013-05-23 13:13:00,46.7,43.4,30.06,NNW,338,4.2,6.2,88,0.08,,,0.15,WUHU216HW,2013-05-23 17:13:00,
2013-05-23 13:18:00,46.5,43.2,30.07,NE,45,1.1,8.5,88,0.06,,,0.15,WUHU216HW,2013-05-23 17:18:00,
2013-05-23 13:23:00,46.5,43.2,30.07,NNE,23,0.8,8.5,88,0.06,,,0.15,WUHU216HW,2013-05-23 17:23:00,
2013-05-23 13:28:00,46.5,43.2,30.08,NNE,23,5.8,6.7,88,0.06,,,0.15,WUHU216HW,2013-05-23 17:28:00,
2013-05-23 13:33:00,46.2,42.9,30.08,NNE,23,0.0,6.7,88,0.00,,,0.15,WUHU216HW,2013-05-23 17:33:00,
2013-05-23 13:38:00,46.2,42.9,30.08,NE,45,10.0,10.0,88,0.00,,,0.15,WUHU216HW,2013-05-23 17:38:00,
2013-05-23 13:43:00,46.2,42.9,30.08,North,0,6.0,10.0,88,0.00,,,0.15,WUHU216HW,2013-05-23 17:43:00,
2013-05-23 13:48:00,46.2,42.9,30.08,North,0,11.6,11.6,88,0.00,,,0.15,WUHU216HW,2013-05-23 17:48:00,
2013-05-23 13:53:00,46.2,42.9,30.08,NNW,338,6.9,11.6,88,0.00,,,0.15,WUHU216HW,2013-05-23 17:53:00,
2013-05-23 13:59:00,46.0,42.7,30.09,NNW,338,6.0,14.5,88,0.00,,,0.15,WUHU216HW,2013-05-23 17:59:00,
2013-05-23 14:04:00,46.0,42.7,30.10,North,0,6.9,14.5,88,0.00,,,0.15,WUHU216HW,2013-05-23 18:04:00,
2013-05-23 14:09:00,46.0,42.7,30.10,North,0,5.5,9.1,88,0.00,,,0.15,WUHU216HW,2013-05-23 18:09:00,
2013-05-23 14:14:00,46.0,42.7,30.10,NE,45,5.1,5.5,88,0.00,,,0.15,WUHU216HW,2013-05-23 18:14:00,
2013-05-23 14:19:00,46.0,42.7,30.10,NNE,23,4.0,13.4,88,0.00,,,0.15,WUHU216HW,2013-05-23 18:19:00,
2013-05-23 14:24:00,45.6,42.3,30.10,North,0,4.4,13.4,88,0.00,,,0.15,WUHU216HW,2013-05-23 18:24:00,
2013-05-23 14:29:00,45.6,42.3,30.11,NE,45,5.1,5.1,88,0.00,,,0.15,WUHU216HW,2013-05-23 18:29:00,
2013-05-23 14:34:00,45.6,42.3,30.10,ENE,68,2.4,5.1,88,0.00,,,0.15,WUHU216HW,2013-05-23 18:34:00,
2013-05-23 14:39:00,45.6,42.3,30.12,NNW,338,3.5,5.1,88,0.00,,,0.15,WUHU216HW,2013-05-23 18:39:00,
2013-05-23 14:44:00,45.6,42.3,30.11,North,0,6.0,6.0,88,0.00,,,0.15,WUHU216HW,2013-05-23 18:44:00,
2013-05-23 14:49:00,45.6,42.3,30.11,NNW,338,2.4,6.4,88,0.00,,,0.15,WUHU216HW,2013-05-23 18:49:00,
2013-05-23 14:55:00,45.6,42.5,30.11,NNE,23,1.7,8.5,88,0.00,,,0.15,WUHU216HW,2013-05-23 18:55:00,
2013-05-23 15:00:00,45.8,42.5,30.11,NNE,23,1.7,8.5,88,0.00,,,0.15,WUHU216HW,2013-05-23 19:00:00,